Location: Seattle
(47.6064°N, 122.3308°W)
Time: 04:04:34
(UTC-08:00)

S-56A Canister/Altair - Pass Details

Date: 01 December 2020
Orbit: 633 x 2499 km, 38.9° (Epoch: 23 January)

Event Time Altitude Azimuth Distance (km) Brightness Sun altitude
Rises 20:00:06 0° 247° (WSW) 5,708 12.7 -36.3°
Reaches altitude 10° 20:04:23 10° 243° (WSW) 4,460 11.9 -37.0°
Enters shadow 20:13:52 45° 196° (SSW) 2,042 9.5 -38.6°
Maximum altitude 20:15:11 48° 175° (S) 1,909 - -38.8°
Drops below altitude 10° 20:22:29 10° 104° (ESE) 3,045 - -40.1°
Sets 20:24:52 0° 98° (E) 3,796 - -40.5°
